Weather History for KUES - April, 2013

Change the Weather History Date:

Tuesday, April 2, 2013

  Actual Average (KMKE) Record (KMKE)
Temperature  
Mean Temperature 28 °F 41 °F  
Max Temperature 35 °F 49 °F 82 °F (1963)
Min Temperature 21 °F 33 °F 13 °F (1886)
Degree Days  
Heating Degree Days 37 24  
Month to date heating degree days 49  
Since 1 July heating degree days 5958  
Cooling Degree Days 0 0  
Month to date cooling degree days 0  
Year to date cooling degree days 0  
Moisture  
Dew Point 14 °F    
Average Humidity 59    
Maximum Humidity 74    
Minimum Humidity 35    
Precipitation  
Precipitation 0.00 in 0.12 in 2.05 in (1983)
Month to date precipitation 0.23  
Year to date precipitation 5.91  
Snow  
Snow 0.00 in 0.20 in 10.20 in (1975)
Month to date snowfall 0.3  
Since 1 July snowfall 45.1  
Snow Depth -    
Sea Level Pressure  
Sea Level Pressure 30.22 in    
Wind  
Wind Speed 8 mph (WNW)    
Max Wind Speed 14 mph    
Max Gust Speed 24 mph    
Visibility 10 miles    
Events      
T = Trace of Precipitation, MM = Missing Value Source: NWS Daily Summary

Daily Weather History Graph

Daily Weather History Graph

Search for Another Location

Airport or City:

Trip Planner

Search our weather history database for the weather conditions in past years. The results will help you decide how hot, cold, wet, or windy it might be!

Date:

Astronomy

Apr. 02, 2013 Rise Set
Actual Time 6:32 AM CDT 7:20 PM CDT
Civil Twilight 6:04 AM CDT 7:49 PM CDT
Nautical Twilight 5:30 AM CDT 8:23 PM CDT
Astronomical Twilight 4:54 AM CDT 8:59 PM CDT
Moon 1:31 AM CDT (4/2) 11:17 AM CDT (4/2)
Length of Visible Light 13h 45m
Length of Day
12h 47m
Waning Gibbous, 55% of the Moon is Illuminated
Apr 2
Waning Gibbous
Apr 2
Last Quarter
Apr 10
New
Apr 18
First Quarter
Apr 25
Full

Hourly Weather History & Observations

Time (CDT) Temp. Windchill Dew Point Humidity Pressure Visibility Wind Dir Wind Speed Gust Speed Precip Events Conditions
12:15 AM 24.8 °F 16.1 °F 14.0 °F 64% 30.17 in 10.0 mi West 8.1 mph - N/A   Clear
12:35 AM 26.6 °F 18.2 °F 14.0 °F 59% 30.17 in 10.0 mi WNW 8.1 mph - N/A   Clear
12:55 AM 24.8 °F 16.1 °F 14.0 °F 64% 30.17 in 10.0 mi West 8.1 mph - N/A   Clear
1:15 AM 24.8 °F 16.9 °F 14.0 °F 64% 30.18 in 10.0 mi West 6.9 mph - N/A   Clear
1:35 AM 24.8 °F 16.1 °F 14.0 °F 64% 30.18 in 10.0 mi West 8.1 mph - N/A   Clear
1:55 AM 23.0 °F 14.7 °F 14.0 °F 68% 30.18 in 10.0 mi WNW 6.9 mph - N/A   Clear
2:15 AM 23.0 °F 13.1 °F 14.0 °F 68% 30.17 in 10.0 mi WNW 9.2 mph - N/A   Clear
2:35 AM 23.0 °F 13.9 °F 14.0 °F 68% 30.17 in 10.0 mi West 8.1 mph - N/A   Clear
2:55 AM 23.0 °F 14.7 °F 14.0 °F 68% 30.17 in 10.0 mi West 6.9 mph - N/A   Clear
3:15 AM 23.0 °F 13.9 °F 14.0 °F 68% 30.17 in 10.0 mi West 8.1 mph - N/A   Clear
3:35 AM 23.0 °F 13.9 °F 14.0 °F 68% 30.17 in 10.0 mi WNW 8.1 mph - N/A   Clear
3:55 AM 23.0 °F 15.8 °F 14.0 °F 68% 30.17 in 10.0 mi West 5.8 mph - N/A   Clear
4:15 AM 23.0 °F 14.7 °F 14.0 °F 68% 30.17 in 10.0 mi West 6.9 mph - N/A   Clear
4:35 AM 23.0 °F 13.9 °F 14.0 °F 68% 30.18 in 10.0 mi West 8.1 mph - N/A   Clear
4:55 AM 23.0 °F 14.7 °F 14.0 °F 68% 30.18 in 10.0 mi West 6.9 mph - N/A   Clear
5:15 AM 21.2 °F 12.6 °F 14.0 °F 74% 30.18 in 10.0 mi West 6.9 mph - N/A   Clear
5:35 AM 23.0 °F 14.7 °F 14.0 °F 68% 30.18 in 10.0 mi West 6.9 mph - N/A   Clear
5:45 AM 21.2 °F 10.9 °F 14.0 °F 74% 30.19 in 10.0 mi West 9.2 mph - N/A   Clear
6:45 AM 21.2 °F 10.9 °F 14.0 °F 74% 30.20 in 10.0 mi West 9.2 mph - N/A   Clear
7:45 AM 24.8 °F 14.0 °F 15.8 °F 69% 30.23 in 10.0 mi West 11.5 mph - N/A   Clear
8:45 AM 26.6 °F 16.2 °F 15.8 °F 64% 30.24 in 10.0 mi West 11.5 mph - N/A   Clear
9:47 AM 30.2 °F 20.8 °F 15.8 °F 55% 30.24 in 10.0 mi WNW 11.5 mph - N/A   Clear
10:45 AM 32.0 °F 23.0 °F 14.0 °F 48% 30.24 in 10.0 mi West 11.5 mph - N/A   Clear
11:45 AM 33.8 °F 24.3 °F 15.8 °F 48% 30.24 in 10.0 mi West 13.8 mph - N/A   Clear
12:45 PM 35.6 °F 27.1 °F 12.2 °F 38% 30.12 in 10.0 mi WNW 12.7 mph - N/A   Scattered Clouds
1:45 PM 35.6 °F 26.6 °F 14.0 °F 41% 30.22 in 10.0 mi West 13.8 mph 20.7 mph N/A   Scattered Clouds
2:45 PM 35.6 °F 27.5 °F 12.2 °F 38% 30.22 in 10.0 mi WNW 11.5 mph 24.2 mph N/A   Scattered Clouds
3:45 PM 35.6 °F 28.0 °F 12.2 °F 38% 30.21 in 10.0 mi West 10.4 mph 19.6 mph N/A   Scattered Clouds
4:45 PM 35.6 °F 26.6 °F 10.4 °F 35% 30.22 in 10.0 mi WNW 13.8 mph - N/A   Scattered Clouds
5:45 PM 35.6 °F 26.6 °F 10.4 °F 35% 30.23 in 10.0 mi WNW 13.8 mph - N/A   Scattered Clouds
6:45 PM 33.8 °F 24.8 °F - N/A% 30.24 in 10.0 mi WNW 12.7 mph - N/A   Scattered Clouds
8:45 PM 30.2 °F 26.7 °F 12.2 °F 47% 30.27 in 10.0 mi WNW 3.5 mph - N/A   Scattered Clouds
9:15 PM 30.2 °F 26.7 °F 12.2 °F 47% 30.28 in 10.0 mi WNW 3.5 mph - N/A   Clear
9:35 PM 28.4 °F - 14.0 °F 55% 30.29 in 10.0 mi Calm Calm - N/A   Clear
9:55 PM 28.4 °F 23.3 °F 14.0 °F 55% 30.29 in 10.0 mi WNW 4.6 mph - N/A   Clear
10:15 PM 28.4 °F 24.6 °F 14.0 °F 55% 30.30 in 10.0 mi West 3.5 mph - N/A   Clear
10:35 PM 26.6 °F 21.2 °F 14.0 °F 59% 30.30 in 10.0 mi West 4.6 mph - N/A   Clear
10:55 PM 28.4 °F 22.2 °F 14.0 °F 55% 30.30 in 10.0 mi NW 5.8 mph - N/A   Clear
11:15 PM 28.4 °F 22.2 °F 14.0 °F 55% 30.30 in 10.0 mi NW 5.8 mph - N/A   Clear
11:35 PM 26.6 °F 20.0 °F 14.0 °F 59% 30.30 in 10.0 mi West 5.8 mph - N/A   Clear
11:55 PM 26.6 °F 20.0 °F 14.0 °F 59% 30.30 in 10.0 mi West 5.8 mph - N/A   Clear